Wind_Speed
17 19 20 22 23 20 18 17 17 19 20 21 21 23 27 23 26 26 26 25 25 26 27 28 25 20 20 28 25 25 22 22 22 22 19 18 18 17 19 19 19 19 20 22
21 22 22 20 19 18 18 18 19 20 20 23 25 27 26 29 30 29 30 29 29 29 28 29 28 27 35 33 24 27 26 27 24 20 19 22 25 25 22 20 19 21 22 15
23 21 19 18 18 19 20 21 23 22 24 24 26 29 27 30 30 32 33 34 34 31 32 32 33 34 41 33 30 36 33 30 25 21 19 11 25 24 24 23 23 22 23 20
19 20 19 19 21 22 23 24 25 27 27 27 28 30 30 32 32 31 33 34 35 35 35 35 36 36 39 39 39 38 37 39 37 33 28 34 26 27 29 24 24 27 24 24
21 21 22 23 24 25 26 27 29 30 31 32 30 31 32 33 34 37 33 35 37 37 35 36 39 42 40 42 43 39 40 42 40 42 35 37 46 39 34 33 33 37 35 31
23 24 25 26 28 30 33 34 35 35 33 33 33 36 33 34 35 36 36 40 38 39 44 42 41 41 41 44 43 43 42 42 42 46 39 36 43 42 43 42 36 36 37 31
26 28 30 33 35 35 34 32 31 30 33 31 33 34 35 37 37 38 41 41 42 45 43 43 43 45 46 46 47 46 46 46 47 47 36 46 37 31 34 38 33 37 35 34
33 33 34 32 31 31 30 30 30 31 32 33 34 34 35 37 39 40 42 45 44 45 44 46 45 45 47 47 46 46 47 46 48 44 40 44 38 34 37 37 36 36 29 36
33 32 32 32 31 32 33 33 33 33 32 33 35 36 37 38 38 39 41 42 42 42 43 44 44 44 42 44 46 45 46 46 46 41 44 50 34 29 36 44 42 37 36 44
33 34 34 34 35 35 34 35 34 34 33 35 34 35 35 34 35 35 38 36 35 37 36 38 38 38 39 41 38 29 35 36 38 37 40 45 38 39 35 50 43 43 44 45
36 36 36 35 34 34 34 34 34 33 33 34 33 34 33 34 34 34 37 33 36 34 34 35 35 38 35 37 35 34 34 35 37 30 35 42 34 35 42 46 50 46 45 43
37 37 37 36 35 34 34 34 34 33 33 33 33 33 34 34 34 34 34 33 34 34 31 33 35 34 33 36 32 31 37 36 35 32 33 37 38 37 47 50 51 45 42 42
38 38 38 37 37 35 33 32 33 34 33 34 33 33 31 31 30 29 29 31 30 31 30 31 31 32 33 34 33 35 34 39 38 40 38 40 44 38 45 45 45 45 43 42
40 38 39 39 37 36 34 32 31 30 29 29 29 27 25 25 26 27 28 29 29 30 29 30 30 31 33 32 33 33 34 35 35 36 37 36 46 46 48 50 47 45 39 41
36 35 35 35 34 31 29 29 27 27 26 23 23 23 23 23 24 24 24 25 25 25 26 26 27 29 30 29 28 26 28 32 35 36 37 40 42 49 47 45 43 33 36 37
32 31 31 30 29 28 25 23 22 20 18 18 20 20 20 20 21 22 21 20 20 20 19 20 21 23 25 23 21 23 29 30 30 30 30 33 35 39 40 39 39 34 34 34
28 27 26 25 22 20 17 15 14 14 15 16 17 17 16 15 14 14 15 15 15 15 15 16 17 20 22 22 21 26 26 26 25 25 26 27 28 32 35 37 38 34 33 33
23 21 19 17 15 13 12 12 13 14 14 13 13 11 9 10 12 12 13 13 11 11 13 15 16 18 22 20 22 17 20 20 20 18 19 21 24 25 27 30 29 29 30 31
17 15 14 13 13 13 13 14 14 12 10 9 7 6 7 10 11 11 10 9 9 8 9 11 13 16 15 18 15 16 16 17 17 15 16 18 19 20 20 22 24 25 28 30
15 15 15 14 15 15 14 12 10 9 8 5 3 5 7 9 7 5 5 5 5 6 7 6 9 12 16 15 15 15 18 18 18 16 14 16 17 18 18 18 19 20 25 28
15 16 17 16 15 12 11 9 9 7 4 3 3 4 6 7 6 5 5 4 7 7 6 8 6 9 17 17 22 19 20 21 18 16 17 18 17 16 15 15 18 21 22 21
16 16 15 13 10 10 9 9 7 4 3 3 4 5 7 5 9 7 5 4 4 5 8 8 12 8 14 13 15 7 8 6 9 11 13 13 12 13 13 16 18 19 21 23
15 14 13 11 11 10 8 7 5 4 4 5 5 6 6 4 4 7 8 6 6 6 5 9 12 11 9 13 14 8 9 8 7 8 9 9 9 11 13 12 10 11 20 23
15 14 13 12 11 10 8 6 6 5 5 6 5 6 3 3 4 8 8 10 10 10 10 13 8 8 13 13 10 14 2 7 6 6 9 10 11 13 14 16 16 16 13 19
14 14 13 12 10 9 8 8 8 6 6 6 5 2 2 2 3 6 9 12 14 18 11 14 11 15 23 17 15 14 10 9 8 10 10 11 9 10 9 8 9 12 14 16
15 14 14 12 11 10 9 9 10 9 8 7 6 4 6 2 4 6 9 10 15 14 5 11 16 15 15 15 14 12 10 9 8 3 1 4 4 4 4 3 3 6 8 11
15 14 13 12 11 10 9 11 12 11 10 10 8 9 5 1 5 6 6 10 15 10 14 11 13 13 16 13 8 8 8 5 4 7 6 6 9 6 6 3 1 4 7 10
Wind_Direction
275 280 284 287 290 291 288 284 277 273 269 266 262 254 253 253 252 248 244 245 248 249 247 246 252 237 247 253 242 250 245 244 245 244 260 257 247 241 261 251 251 251 240 238
281 285 286 287 287 289 289 283 280 276 275 269 264 259 258 255 253 249 248 249 250 247 247 249 247 242 244 258 245 246 246 250 247 247 251 260 257 264 249 243 253 253 247 249
284 284 284 284 286 289 292 291 287 281 279 275 268 265 260 259 255 253 252 252 253 253 252 250 247 241 249 254 247 248 248 249 243 242 238 247 241 246 251 246 247 256 256 259
279 280 281 284 288 290 292 291 290 287 284 279 275 268 265 259 259 253 255 253 253 253 252 251 251 247 251 254 249 251 250 250 246 245 243 228 242 255 247 243 244 246 245 241
281 282 283 286 289 292 292 294 292 287 284 280 277 273 267 264 259 258 255 254 253 251 254 252 248 248 248 250 261 253 254 254 254 252 248 249 237 246 250 256 259 257 255 253
283 285 287 288 290 292 292 291 289 286 283 278 273 271 272 268 265 265 259 259 257 259 253 255 259 260 257 257 256 257 258 254 253 255 254 259 257 251 254 256 255 258 253 257
290 290 292 292 293 295 296 292 289 286 283 280 276 274 270 268 266 264 264 262 261 259 261 261 257 255 256 256 256 256 255 256 256 257 250 247 257 250 251 255 251 247 249 247
294 295 295 297 299 300 299 295 290 286 283 281 278 276 272 269 268 266 265 264 262 264 262 261 259 258 258 259 259 258 257 255 255 255 255 259 251 252 253 250 252 255 254 239
297 298 300 302 301 299 297 293 290 288 284 282 280 277 276 274 271 270 266 265 265 265 264 263 262 262 262 262 262 259 256 254 252 252 253 253 249 244 239 247 248 245 248 249
297 297 299 299 299 298 294 292 289 285 285 284 282 279 277 275 274 271 271 269 267 265 263 263 263 263 261 257 255 247 256 257 252 252 255 258 249 234 239 247 251 246 247 246
297 298 299 298 296 295 292 291 288 284 284 282 280 278 276 276 274 270 271 268 263 264 262 263 264 263 263 261 261 256 245 254 257 258 250 255 258 252 247 251 250 250 247 246
302 301 300 296 292 290 288 286 284 283 283 281 280 280 279 278 275 272 270 267 266 265 265 261 260 264 261 262 260 264 263 256 248 240 243 250 264 250 243 250 256 256 253 245
301 299 296 293 290 287 286 284 283 284 283 282 282 281 279 276 274 272 271 268 269 268 264 263 263 263 262 264 266 262 258 262 261 260 253 238 246 253 256 252 252 251 248 246
301 297 295 293 290 288 285 286 285 287 285 283 282 279 277 276 276 275 274 272 269 269 267 264 262 263 262 262 265 269 269 268 265 262 261 255 246 241 244 254 253 250 249 247
301 300 299 296 294 291 291 289 287 286 284 281 282 280 284 283 282 281 278 275 272 268 266 265 263 263 265 266 266 269 267 264 263 263 254 246 246 246 252 251 253 253 248 244
305 304 303 301 300 297 293 292 288 284 284 285 287 289 289 288 285 281 279 276 273 271 268 266 265 266 269 271 273 274 271 276 275 269 261 257 256 253 251 252 252 248 247 243
310 306 304 304 304 305 303 298 293 292 293 293 293 294 294 293 290 289 286 280 277 275 271 268 268 269 271 275 277 273 282 279 273 267 259 255 253 250 245 241 243 245 246 247
313 312 312 312 314 315 309 305 302 300 298 294 295 296 300 302 304 302 296 294 289 284 273 271 275 277 281 290 282 278 271 272 270 260 253 249 249 248 245 246 244 244 246 246
320 319 321 320 321 319 312 305 304 301 298 297 292 301 309 312 314 309 302 288 288 282 282 280 285 286 292 283 289 286 286 286 280 268 255 248 247 247 246 250 254 254 250 243
321 319 318 314 318 314 311 308 305 303 297 281 285 321 317 324 326 326 313 304 290 287 284 293 293 295 295 293 285 287 289 281 275 271 261 255 253 252 256 249 244 245 246 245
317 317 316 312 312 311 310 306 307 300 274 267 318 315 327 322 315 298 280 292 291 299 302 297 348 337 280 291 294 293 278 271 265 267 263 258 260 262 254 250 246 245 239 236
318 318 316 312 311 311 305 306 304 274 239 231 302 325 323 325 333 320 342 27 68 42 13 22 12 311 289 311 309 315 311 277 258 260 262 260 254 250 250 251 248 246 239 229
311 311 308 307 308 306 296 301 279 251 235 235 315 314 318 350 353 79 82 64 41 5 6 353 326 327 308 300 313 309 313 282 264 251 250 247 245 245 247 254 263 249 234 234
301 304 303 300 297 293 282 271 238 235 239 234 279 303 16 11 71 49 37 31 12 356 340 354 351 348 328 322 324 339 315 300 271 259 252 256 250 256 257 270 253 250 242 226
287 295 297 297 286 280 266 250 229 222 217 229 244 266 258 157 40 9 2 17 7 358 344 40 57 22 27 26 353 343 335 322 287 269 262 254 250 257 255 246 238 233 228 222
276 284 289 285 275 270 262 241 227 216 218 216 221 203 171 173 308 335 342 349 354 2 28 2 9 9 1 356 0 352 337 331 331 31 162 211 215 212 170 186 195 191 195 201
267 274 277 273 265 264 253 232 225 220 216 217 210 182 174 157 356 350 15 359 356 28 22 20 11 5 5 2 352 354 343 349 33 54 100 111 136 115 115 105 145 182 195 204
Height
5851 5851 5850 5849 5847 5846 5845 5844 5844 5842 5842 5843 5843 5843 5843 5846 5845 5846 5847 5848 5849 5851 5852 5853 5853 5856 5855 5852 5856 5856 5859 5860 5861 5863 5864 5864 5865 5869 5869 5869 5871 5873 5876 5879
5846 5845 5844 5843 5841 5840 5840 5839 5838 5837 5837 5836 5835 5835 5836 5836 5837 5838 5839 5841 5841 5842 5844 5845 5846 5848 5842 5845 5849 5849 5851 5851 5854 5858 5863 5862 5859 5860 5862 5867 5870 5871 5872 5877
5840 5839 5838 5837 5836 5835 5834 5834 5832 5832 5830 5829 5828 5827 5828 5828 5828 5829 5830 5832 5832 5834 5835 5836 5837 5838 5833 5838 5841 5838 5841 5844 5847 5853 5859 5856 5852 5852 5854 5858 5861 5864 5866 5869
5834 5833 5832 5832 5830 5829 5828 5827 5826 5823 5823 5822 5820 5819 5819 5819 5819 5820 5821 5822 5823 5824 5824 5826 5826 5828 5828 5826 5828 5831 5833 5833 5836 5838 5843 5844 5844 5845 5846 5847 5850 5851 5857 5859
5828 5828 5827 5825 5824 5822 5821 5819 5817 5816 5814 5812 5811 5809 5809 5809 5810 5810 5813 5812 5811 5813 5815 5815 5815 5814 5818 5817 5817 5821 5822 5822 5825 5825 5829 5831 5832 5833 5835 5837 5838 5839 5842 5844
5822 5821 5819 5818 5816 5814 5812 5810 5808 5805 5804 5802 5802 5799 5800 5799 5799 5800 5801 5799 5802 5802 5799 5802 5805 5806 5807 5807 5807 5809 5810 5812 5812 5811 5816 5819 5816 5823 5823 5824 5828 5830 5830 5837
5815 5813 5811 5809 5806 5804 5802 5799 5797 5796 5793 5793 5791 5790 5789 5788 5787 5788 5787 5789 5789 5788 5791 5791 5792 5791 5792 5792 5794 5796 5797 5799 5799 5799 5804 5799 5809 5814 5814 5813 5815 5817 5818 5824
5805 5804 5801 5799 5796 5794 5792 5790 5788 5786 5784 5782 5781 5780 5778 5777 5776 5776 5774 5773 5774 5775 5777 5776 5776 5778 5778 5779 5781 5782 5784 5785 5785 5785 5788 5791 5797 5800 5801 5801 5802 5803 5805 5807
5796 5794 5792 5789 5787 5784 5782 5780 5778 5776 5774 5772 5769 5768 5767 5766 5764 5763 5762 5761 5761 5761 5761 5761 5762 5764 5765 5765 5766 5767 5768 5770 5770 5774 5772 5774 5787 5789 5784 5782 5784 5790 5792 5791
5787 5784 5782 5779 5776 5773 5770 5768 5765 5764 5762 5760 5758 5757 5754 5754 5752 5751 5748 5749 5750 5748 5748 5749 5750 5751 5751 5752 5753 5757 5754 5755 5756 5759 5759 5761 5768 5772 5772 5769 5778 5776 5776 5777
5778 5775 5771 5768 5764 5761 5759 5756 5753 5752 5749 5747 5746 5744 5743 5742 5740 5739 5737 5738 5736 5738 5738 5738 5739 5738 5738 5738 5740 5741 5744 5745 5744 5748 5748 5749 5757 5756 5756 5757 5754 5759 5763 5767
5767 5764 5760 5756 5753 5750 5747 5745 5742 5740 5738 5737 5735 5733 5731 5730 5729 5728 5727 5726 5725 5726 5727 5726 5726 5727 5727 5726 5728 5730 5730 5731 5733 5738 5737 5734 5736 5740 5740 5741 5742 5746 5749 5753
5756 5752 5749 5746 5742 5738 5736 5733 5731 5728 5727 5725 5723 5722 5721 5719 5717 5717 5717 5716 5716 5715 5715 5716 5716 5716 5717 5717 5717 5717 5717 5715 5718 5718 5726 5726 5727 5728 5726 5729 5729 5731 5736 5740
5744 5740 5737 5733 5730 5727 5725 5722 5720 5718 5716 5714 5713 5711 5710 5709 5708 5708 5707 5706 5706 5706 5706 5706 5706 5706 5705 5706 5706 5707 5707 5706 5707 5707 5709 5713 5714 5715 5712 5712 5714 5718 5724 5727
5733 5729 5726 5723 5719 5716 5714 5712 5710 5708 5708 5705 5704 5703 5702 5701 5700 5699 5698 5698 5697 5697 5696 5696 5697 5696 5695 5695 5696 5698 5696 5694 5693 5695 5696 5696 5698 5697 5699 5702 5703 5709 5711 5714
5724 5720 5717 5714 5710 5708 5705 5704 5702 5701 5699 5699 5698 5697 5695 5694 5693 5692 5691 5690 5689 5689 5688 5687 5687 5687 5687 5688 5688 5687 5685 5684 5683 5683 5683 5683 5683 5685 5687 5690 5692 5696 5699 5703
5716 5713 5709 5706 5704 5701 5699 5698 5697 5695 5695 5694 5692 5691 5690 5688 5687 5686 5684 5683 5683 5683 5682 5682 5682 5681 5680 5680 5681 5677 5676 5674 5673 5672 5671 5672 5672 5673 5675 5677 5681 5686 5689 5692
5710 5706 5704 5702 5700 5698 5696 5694 5693 5692 5691 5690 5689 5688 5687 5685 5683 5681 5679 5678 5677 5677 5676 5677 5676 5676 5673 5674 5670 5669 5667 5666 5664 5664 5664 5664 5664 5665 5667 5669 5674 5677 5680 5682
5705 5703 5701 5699 5697 5695 5693 5691 5690 5688 5689 5687 5686 5685 5684 5682 5680 5678 5676 5675 5674 5674 5673 5672 5672 5670 5669 5666 5665 5664 5662 5661 5659 5659 5659 5658 5658 5659 5661 5664 5666 5668 5670 5672
5703 5701 5699 5696 5694 5692 5690 5688 5687 5686 5685 5684 5684 5684 5682 5681 5678 5676 5674 5673 5672 5672 5672 5670 5670 5668 5664 5663 5661 5660 5658 5656 5654 5654 5654 5654 5655 5655 5656 5657 5659 5661 5662 5663
5700 5697 5695 5693 5691 5689 5687 5686 5685 5684 5684 5684 5684 5683 5681 5679 5677 5675 5674 5673 5671 5670 5670 5668 5666 5664 5660 5657 5654 5653 5651 5648 5648 5649 5649 5649 5650 5650 5651 5652 5652 5653 5654 5655
5696 5694 5692 5690 5688 5687 5686 5684 5684 5683 5684 5683 5683 5682 5680 5678 5676 5674 5674 5672 5671 5670 5668 5665 5663 5661 5656 5653 5648 5648 5647 5645 5644 5644 5644 5644 5645 5645 5645 5646 5647 5648 5649 5650
5693 5691 5689 5688 5686 5685 5684 5683 5682 5682 5682 5683 5682 5681 5680 5679 5677 5676 5674 5673 5671 5669 5666 5664 5661 5657 5654 5652 5649 5647 5646 5643 5641 5641 5640 5640 5641 5641 5641 5641 5642 5642 5644 5646
5689 5687 5686 5684 5683 5682 5681 5681 5681 5681 5681 5681 5681 5681 5679 5679 5678 5676 5675 5673 5671 5668 5665 5663 5660 5656 5653 5649 5647 5644 5642 5641 5639 5638 5637 5637 5638 5638 5638 5637 5637 5639 5641 5643
5685 5684 5682 5681 5680 5679 5679 5679 5679 5680 5680 5680 5681 5681 5680 5680 5679 5678 5676 5673 5670 5668 5665 5661 5658 5655 5649 5648 5647 5644 5641 5639 5637 5635 5634 5635 5635 5634 5634 5634 5635 5636 5638 5640
5680 5679 5678 5678 5677 5676 5676 5677 5677 5678 5678 5679 5680 5680 5680 5680 5679 5678 5676 5674 5672 5669 5664 5662 5659 5656 5653 5650 5647 5643 5640 5638 5636 5634 5633 5633 5633 5633 5634 5633 5634 5635 5637 5640
5674 5675 5674 5674 5673 5673 5673 5674 5675 5676 5677 5678 5679 5680 5680 5680 5679 5678 5677 5675 5673 5669 5666 5664 5661 5658 5654 5650 5647 5644 5641 5639 5637 5636 5635 5635 5635 5636 5636 5636 5636 5637 5639 5642